This is the latest recevied weather packets stored in our database for station/object EA3ANS-1. If no packets are shown the sender has not sent any weather packets the latest 10 day(s).
| Time | Temp. | Humidity | Pressure | Rain* | Wind** | Luminosity | Snow |
|---|---|---|---|---|---|---|---|
| 1777832566 | 17.22° C | - | 1013.6 hPa | 0 mm | 1.34 m/s, 127° | - | - |
| 1777831968 | 17.22° C | - | 1013.3 hPa | 0 mm | 1.79 m/s, 212° | - | - |
| 1777831363 | 16.67° C | - | 1013.3 hPa | 0 mm | 1.34 m/s, 153° | - | - |
| 1777830763 | 17.22° C | - | 1013.6 hPa | 0 mm | 1.34 m/s, 89° | - | - |
| 1777830163 | 17.22° C | - | 1013.6 hPa | 0 mm | 1.79 m/s, 150° | - | - |
| 1777829563 | 17.22° C | - | 1013.3 hPa | 0 mm | 1.34 m/s, 82° | - | - |
| 1777828966 | 17.22° C | - | 1013.1 hPa | 0 mm | 1.79 m/s, 128° | - | - |
| 1777828369 | 17.22° C | - | 1013.1 hPa | 0 mm | 2.68 m/s, 73° | - | - |
| 1777827771 | 17.22° C | - | 1013.1 hPa | 0 mm | 2.24 m/s, 91° | - | - |
| 1777827163 | 17.22° C | - | 1013.2 hPa | 0 mm | 2.68 m/s, 131° | - | - |
| 1777826561 | 17.22° C | - | 1013 hPa | 0 mm | 3.13 m/s, 82° | - | - |
| 1777825961 | 17.22° C | - | 1013.1 hPa | 0 mm | 2.68 m/s, 128° | - | - |
| 1777825362 | 17.78° C | - | 1013 hPa | 0 mm | 3.58 m/s, 136° | - | - |
| 1777824763 | 17.78° C | - | 1013 hPa | 0 mm | 2.24 m/s, 115° | - | - |
| 1777824162 | 17.78° C | - | 1012.9 hPa | 0 mm | 3.13 m/s, 135° | - | - |
| 1777823564 | 18.33° C | - | 1013 hPa | 0 mm | 2.24 m/s, 113° | - | - |
| 1777822960 | 18.33° C | - | 1012.9 hPa | 0 mm | 2.68 m/s, 114° | - | - |
| 1777822361 | 18.33° C | - | 1012.9 hPa | 0 mm | 3.13 m/s, 124° | - | - |
| 1777821762 | 18.89° C | - | 1013 hPa | 0 mm | 2.68 m/s, 141° | - | - |
| 1777821161 | 18.89° C | - | 1012.9 hPa | 0 mm | 1.79 m/s, 121° | - | - |
| 1777820564 | 18.89° C | - | 1012.9 hPa | 0 mm | 1.79 m/s, 96° | - | - |
| 1777819964 | 18.89° C | - | 1013 hPa | 0 mm | 1.79 m/s, 127° | - | - |
| 1777819366 | 19.44° C | - | 1012.9 hPa | 0 mm | 2.24 m/s, 139° | - | - |
| 1777818762 | 19.44° C | - | 1013.1 hPa | 0 mm | 2.24 m/s, 141° | - | - |
| 1777818162 | 19.44° C | - | 1013.4 hPa | 0 mm | 1.79 m/s, 159° | - | - |
* Rain latest hour (hover to see other rain measurements)
** Current wind speed in m/s (hover to see current wind gust speed)